Weather Roundup
Issued by NWS Chicago, IL

Home | Current Version | Previous Version | Graphics & Text | Print | Product List | Glossary On
Versions: 1 2 3 4 5 6 7 8 9 10 11 12 13 14 15 16 17 18 19 20 21 22 23 24 25 26 27 28 29 30 31 32 33 34 35 36 37 38 39 40 41 42 43 44 45 46 47 48 49 50
000
NZUS59 KLOT 302206
HRRLOT

CHICAGO AREA WEATHER ROUNDUP
NATIONAL WEATHER SERVICE CHICAGO/ROMEOVILLE IL
400 PM CST FRI JAN 30 2015

NOTE: "FAIR" INDICATES FEW OR NO CLOUDS BELOW 12,000 FEET WITH NO
SIGNIFICANT WEATHER AND/OR OBSTRUCTIONS TO VISIBILITY.

* THESE STATIONS ARE NOT UNDER NWS QUALITY CONTROL. THEY ALSO MAY NOT
  REPORT WEATHER SUCH AS PRECIPITATION OR FOG.

ILZ005-006-012>014-019>023-302300-
NORTHEAST ILLINOIS

CITY           SKY/WX    TMP DP  RH WIND       PRES   REMARKS
OHARE          PTCLDY    28   9  44 W3        30.43F
MIDWAY         PTCLDY    31   8  38 W6        30.45F WCI  25
AURORA         SUNNY     27  11  51 W5        30.45F WCI  22
LANSING*       CLEAR     29  15  55 CALM      30.45F
JOLIET*        CLEAR     29  13  52 NW5       30.46F WCI  23
WAUKEGAN       CLEAR     25  13  60 S6        30.43F WCI  18
DUPAGE AIRPORT CLEAR     27  10  49 W6        30.44F WCI  20
WHEELING       CLEAR     28   7  41 S3        30.45F
KANKAKEE*      SUNNY     31  18  58 SW5       30.47S WCI  26
MORRIS*        SUNNY     29  17  60 W3        30.46F
LEWIS AIRPORT* CLEAR     29  12  49 W7        30.45F WCI  22
NORTHERLY IS     N/A     26  15  63 E3          N/A
$$

WIZ051-052-058>065-066-070>072-302300-
SOUTHEAST WISCONSIN

CITY           SKY/WX    TMP DP  RH WIND       PRES   REMARKS
MILWAUKEE      PTCLDY    27   6  41 SW10      30.43F WCI  17
KENOSHA*       CLEAR     27   9  46 W6        30.43F WCI  20
RACINE*        CLEAR     25  12  58 S6        30.45F WCI  18
BURLINGTON     CLEAR     24   9  52 W6        30.42F WCI  17
WAUKESHA       CLEAR     23   7  50 W9        30.44S WCI  13
$$

INZ001>003-010>013-019-020-302300-
NORTHWEST INDIANA

CITY           SKY/WX    TMP DP  RH WIND       PRES   REMARKS
GARY*          PTCLDY    28  10  47 NE6       30.46F WCI  22
MICHIGAN CITY* NOT AVBL
RENSSELAER*    NOT AVBL
VALPARAISO     PTCLDY    28  13  53 CALM      30.45S
$$

LMZ740>746-302300-
SOUTHERN LAKE MICHIGAN

STATION/POSITION TIME  SKY/WX   TEMP WIND        PRES    VSBY
                                AIR  DIR/SP/G
                 (UTC)          (F)  (DEG/KT/KT) (MB)    (MI)
HARRISON CRIB    2200            24   80/  4/  6   N/A
BURNHAM HARBOR   2200            26   90/  3/  6   N/A
CALUMET HARBOR   2200            25   40/  5/  6   N/A
BURNS HARBOR     NOT AVBL
MICHIGAN CITY    2200            26  360/  3/  5   N/A
$$

ABBREVIATIONS USED IN REMARKS
   TC - TEMPERATURE IN CELSIUS
  WCI - WIND CHILL INDEX
   HX - HEAT INDEX
  VSB - VISIBILITY
$$



USA.gov is the U.S. government's official web portal to all federal, state and local government web resources and services.